Waukegan, IL

11:02 PM CST on February 13, 2016 (GMT -0600)
Waukegan Regional

Weather History for KUGN - May, 2014

Change the Weather History Date:

Tuesday, May 6, 2014

  Actual Average Record
Temperature  
Mean Temperature 48 °F -  
Max Temperature 56 °F 63 °F 85 °F (2000)
Min Temperature 40 °F 43 °F 34 °F (2006)
Degree Days  
Heating Degree Days 17 12  
Month to date heating degree days 105 78  
Since 1 July heating degree days 7746 6520  
Cooling Degree Days 0 0  
Month to date cooling degree days 0 0  
Year to date cooling degree days 0 4  
Moisture  
Dew Point 36 °F    
Average Humidity 64    
Maximum Humidity 76    
Minimum Humidity 52    
Precipitation  
Precipitation T in 0.12 in 0.95 in (2012)
Month to date precipitation 0.07 0.75  
Year to date precipitation 5.87 9.60  
Sea Level Pressure  
Sea Level Pressure 29.98 in    
Wind  
Wind Speed 11 mph (NE)    
Max Wind Speed 21 mph    
Max Gust Speed 27 mph    
Visibility 10 miles    
Events Rain , Thunderstorm    
T = Trace of Precipitation, MM = Missing Value Source: NWS Daily Summary

Daily Weather History Graph

Daily Weather History Graph

Search for Another Location

Airport or City:

Trip Planner

Search our weather history database for the weather conditions in past years. The results will help you decide how hot, cold, wet, or windy it might be!

Date:

Astronomy

May. 06, 2014 Rise Set
Actual Time 5:40 AM CDT 7:56 PM CDT
Civil Twilight 5:08 AM CDT 8:28 PM CDT
Nautical Twilight 4:30 AM CDT 9:06 PM CDT
Astronomical Twilight 3:47 AM CDT 9:49 PM CDT
Moon 11:57 AM CDT (5/6) 1:14 AM CDT (5/6)
Length of Visible Light 15h 19m
Length of Day
14h 16m
Waxing Crescent, 46% of the Moon is Illuminated
May 6
Waxing Crescent
May 6
First Quarter
May 14
Full
May 21
Last Quarter
May 28
New

Hourly Weather History & Observations

Time (CDT) Temp. Windchill Dew Point Humidity Pressure Visibility Wind Dir Wind Speed Gust Speed Precip Events Conditions
1:52 AM 41.0 °F 35.2 °F 33.1 °F 73% 30.02 in 10.0 mi North 9.2 mph - N/A   Clear
2:52 AM 41.0 °F 35.2 °F 34.0 °F 76% 30.02 in 10.0 mi NNE 9.2 mph - N/A   Clear
6:52 AM 42.1 °F 37.7 °F 35.1 °F 76% 30.05 in 10.0 mi NNE 6.9 mph - N/A   Clear
7:52 AM 43.0 °F 37.7 °F 36.0 °F 76% 30.06 in 10.0 mi ENE 9.2 mph - N/A   Clear
9:52 AM 48.0 °F - 37.0 °F 66% 30.06 in 10.0 mi ENE 8.1 mph - N/A   Clear
10:52 AM 50.0 °F - 36.0 °F 59% 30.06 in 10.0 mi East 9.2 mph - N/A   Clear
11:52 AM 50.0 °F - 36.0 °F 59% 30.06 in 10.0 mi ENE 9.2 mph - N/A   Clear
12:52 PM 53.1 °F - 37.0 °F 55% 30.04 in 10.0 mi ENE 12.7 mph - N/A   Clear
1:52 PM 54.0 °F - 39.0 °F 57% 30.02 in 10.0 mi ENE 17.3 mph - N/A   Clear
2:52 PM 55.0 °F - 39.0 °F 55% 29.99 in 10.0 mi NE 12.7 mph - N/A   Clear
3:52 PM 54.0 °F - 37.9 °F 55% 29.96 in 10.0 mi NE 18.4 mph 24.2 mph N/A   Clear
4:52 PM 54.0 °F - 37.0 °F 53% 29.94 in 10.0 mi NE 13.8 mph 20.7 mph N/A   Clear
5:52 PM 48.0 °F - 36.0 °F 63% 29.93 in 10.0 mi NNE 15.0 mph 24.2 mph N/A   Clear
6:52 PM 45.0 °F 38.2 °F 34.0 °F 65% 29.94 in 10.0 mi NNE 15.0 mph 21.9 mph N/A   Clear
7:52 PM 45.0 °F 39.3 °F 33.1 °F 63% 29.96 in 10.0 mi NNE 11.5 mph 24.2 mph N/A   Mostly Cloudy
8:52 PM 45.0 °F 39.3 °F 33.1 °F 63% 29.94 in 10.0 mi NNE 11.5 mph - N/A Thunderstorm Scattered Clouds
9:10 PM 46.0 °F 39.9 °F 33.1 °F 61% 29.91 in 10.0 mi ENE 13.8 mph - 0.00 in Rain , Thunderstorm Light Thunderstorms and Rain
9:25 PM 45.0 °F 40.6 °F 36.0 °F 71% 29.94 in 10.0 mi North 8.1 mph - 0.00 in Rain , Thunderstorm Light Rain
9:48 PM 44.6 °F 39.7 °F 37.4 °F 76% 29.92 in 10.0 mi East 9.2 mph - 0.00 in   Clear
9:52 PM 46.0 °F 41.9 °F 37.0 °F 71% 29.93 in 10.0 mi ENE 8.1 mph - 0.00 in   Clear
10:52 PM 51.1 °F - 36.0 °F 56% 29.91 in 10.0 mi East 10.4 mph 20.7 mph N/A   Clear
11:52 PM 50.0 °F - 34.0 °F 54% 29.91 in 10.0 mi East 12.7 mph - N/A   Partly Cloudy